Location: Le Rocchette
(44.3500°N, 7.8333°E)
Time: 08:03:39
(UTC+00:00)

Cosmos 2082 Rocket - Pass Details

Date: 17 November 2019
Orbit: 833 x 854 km, 71.0° (Epoch: 11 December)

Event Time Altitude Azimuth Distance (km) Brightness Sun altitude
Exits shadow 02:43:31 24° 54° (NE) 1,711 4.2 -39.7°
Drops below altitude 10° 02:45:56 10° 39° (NE) 2,489 5.1 -39.2°
Sets 02:48:31 0° 32° (NNE) 3,428 5.9 -38.8°
